Regional Weather Roundup
Issued by NWS

Home | Current Version | Previous Version | Graphics & Text | Print | Product List | Glossary On
Versions: 1 2 3 4 5 6 7 8 9 10 11 12 13 14 15 16 17 18 19 20 21 22 23 24 25 26 27 28 29 30 31 32 33 34 35 36 37 38 39 40 41 42 43 44 45 46 47 48 49 50
000
ASUS43 KDTX 260110
RWRMI
MICHIGAN HOURLY REGIONAL WEATHER ROUNDUP
NATIONAL WEATHER SERVICE DETROIT/PONTIAC MI
800 PM EST THU DEC 25 2014

NOTE: "FAIR" INDICATES FEW OR NO CLOUDS BELOW 12,000 FEET WITH NO
SIGNIFICANT WEATHER AND/OR OBSTRUCTION TO VISIBILITY.

MIZ047>049-052>055-059>063-066>070-074>076-081>083-260200-
SOUTHEAST LOWER MICHIGAN

CITY           SKY/WX    TMP DP  RH WIND       PRES   REMARKS
ADRIAN         CLOUDY    35  30  82 SW9       30.13R WCI  28
ALMA           PTCLDY    33  30  90 S8        30.04R WCI  26
ANN ARBOR      MOCLDY    34  29  82 SW8       30.10R WCI  27
BAD AXE        MOCLDY    34  31  88 SW9G16    30.03R WCI  27
CARO           PTCLDY    34  29  84 SW8       30.04R WCI  27
DETROIT CITY   CLOUDY    39  29  67 SW15G21   30.11R WCI  31
DETROIT        MOCLDY    36  29  75 S12G21    30.13R WCI  28
FLINT          PTCLDY    36  28  73 SW8       30.07R WCI  30
GROSSE ILE     CLOUDY    37  30  75 SW10G16   30.12R WCI  30
HILLSDALE      PTCLDY    35  31  85 SW7       30.09R WCI  29
HOWELL         PTCLDY    33  29  87 S7        30.07R WCI  26

CITY           SKY/WX    TMP DP  RH WIND       PRES   REMARKS
JACKSON        CLEAR     33  28  81 SW10      30.08R WCI  25
LAMBERTVILLE   MOCLDY    37  30  75 SW5       30.15R WCI  34
LANSING        CLEAR     34  28  79 SW13      30.07R WCI  25
LAPEER         FAIR      33  29  85 SW8       30.06R WCI  26
MASON          CLEAR     33  29  86 SW8       30.08R WCI  25
MONROE         MOCLDY    36  30  80 SW9       30.12R WCI  29
MT. CLEMENS    MOCLDY    36  32  85 SW9       30.08R WCI  29
PONTIAC        MOCLDY    34  28  79 SW8       30.06R WCI  27
PORT HOPE        N/A     36  29  75 SW10G20   29.98R WCI  28
PORT HURON     CLOUDY    36  30  80 SW5       30.09R WCI  32
TRI CITIES     MOCLDY    36  29  75 SW13      30.03R WCI  27
TROY           MOCLDY    37  29  72 SW7       30.11R WCI  32
SAGINAW HB     PTCLDY    34  32  93 SW9       30.04R WCI  26
$$
MIZ043>046-050>051-056>058-064>065-071>073-077>080-260200-
SOUTHWEST LOWER MICHIGAN

CITY           SKY/WX    TMP DP  RH WIND       PRES   REMARKS
BATTLE CREEK   CLEAR     34  28  79 S10       30.06S WCI  26
BENTON HARBOR  PTCLDY    36  32  85 S9        30.04S WCI  29
BIG RAPIDS     CLOUDY    35  33  90 S9G16     29.98S WCI  28
COLDWATER      CLEAR     34  29  83 MISG      30.08F
FREMONT        MOCLDY    35  32  90 S7        29.98F WCI  29
HOLLAND        CLEAR     36  29  75 S13       30.02R WCI  27
GRAND RAPIDS   PTCLDY    33  28  81 S7        30.04R WCI  27
IONIA          FAIR      34  30  86 SW6       30.04R WCI  29
KALAMAZOO      CLEAR     34  29  82 S9        30.06S WCI  27
LUDINGTON      CLOUDY    37  32  81 S8        29.96S WCI  31
MARSHALL       CLEAR     33  29  86 S7        30.07S WCI  27
MOUNT PLEASANT CLOUDY    35  30  82 SW9       30.02R WCI  28
MUSKEGON       PTCLDY    39  33  79 S14G24    30.01R WCI  31
SOUTH HAVEN    CLEAR     36  32  84 S7        30.04R WCI  31
$$
MIZ016>042-260200-
NORTHERN LOWER MICHIGAN

CITY           SKY/WX    TMP DP  RH WIND       PRES   REMARKS
ALPENA         CLOUDY    35  29  78 SW9       29.95R WCI  28
BEAVER ISLAND  DRIZZLE   36  32  85 SW9G17    29.91R WCI  29
BELLAIRE       CLOUDY    36  30  79 SW6       29.95S WCI  31
CADILLAC       CLOUDY    33  31  92 S13G20    29.93F WCI  23
CHARLEVOIX     MOCLDY    36  32  85 SW9G16    29.95S WCI  29
FRANKFORT      CLOUDY    38  34  85 SW9G21    29.94S WCI  32
GAYLORD        CLOUDY    32  29  88 SW12      29.92R WCI  23
GRAYLING       CLOUDY    33  29  86 SW7       29.95R WCI  27
HARBOR SPRINGS CLOUDY    36  31  83 SW12G17   29.92R WCI  28
HOUGHTON LAKE  CLOUDY    33  28  81 SW9       29.96R WCI  25
MANISTEE       CLOUDY    37  30  75 S6        29.96S WCI  33
OSCODA         CLOUDY    35  29  80 SW13      29.97R WCI  26
PELLSTON       CLOUDY    36  30  79 SW10G22   29.92R WCI  28
ROGERS CITY    MOCLDY    35  32  90 SW7       29.94R WCI  29
TRAVERSE CITY  CLOUDY    37  31  78 VRB7      29.94R WCI  32
$$
MIZ007>008-015-260200-
EASTERN UPPER MICHIGAN

CITY           SKY/WX    TMP DP  RH WIND       PRES   REMARKS
KINROSS        PTCLDY    34  32  93 SW6       29.89R WCI  29
MACKINAC ISLAN CLOUDY    36  34  93 SW10G18   29.90R WCI  28
NEWBERRY       MOCLDY    32  31  94 SW10      29.87R WCI  24
S. S. MARIE    MOCLDY    34  30  85 SW13      29.90R WCI  25
MUNISING         N/A     37  29  72 SW6       29.86R WCI  32
$$
MIZ004>006-011>014-085-260200-
CENTRAL UPPER MICHIGAN

CITY           SKY/WX    TMP DP  RH WIND       PRES   REMARKS
MANISTIQUE     CLOUDY    33  32  95 MISG      29.89R
ESCANABA       CLOUDY    34  28  80 SW8       29.89R WCI  27
MENOMINEE      CLOUDY    36  28  75 SW9       29.90R WCI  29
SAWYER-GWINN   CLOUDY    32  30  93 SW7       29.84R WCI  26
$$
MIZ001>003-009>011-084-260200-
WESTERN UPPER MICHIGAN

CITY           SKY/WX    TMP DP  RH WIND       PRES   REMARKS
IRON MOUNTAIN  LGT SNOW  32  29  88 S3        29.85R FOG
HOUGHTON       CLOUDY    33  28  81 W10       29.81S WCI  25
COPPER HARBOR    N/A     34  30  85 W6        29.81S WCI  29
IRONWOOD       CLOUDY    30  30 100 W5        29.82R WCI  25
$$

ABBREVIATIONS USED IN REMARKS
   TC - TEMPERATURE IN CELSIUS
  WCI - WIND CHILL INDEX
   HX - HEAT INDEX
  VSB - VISIBILITY



USA.gov is the U.S. government's official web portal to all federal, state and local government web resources and services.